Алёховщина

Россия / Санкт-Петербург и Ленинградская область     60°24′11″N   33°51′10″E
темп.,
°C
ветер,
м/с
пор.,
м/с
влажн.,
%
обл.,
%
осадки,
мм/ч
давл.,
гПа
погр.,
м
31 июля, сб
сб3100:00+14ююв268099 0.0 999100
03:00+13ю28865 0.2 998186
06:00+13ю3138997 0.4 996456
09:00+13ююз31097100 3.0 995883
12:00+16юз489298 2.4 996944
15:00+15юз499596 4.3 996761
18:00+17з4108953 1.5 998999
21:00+15зюз312925 1.8 1000492
1 августа, вс
вс100:00+13юз210983 0.0 1001235
03:00+11ююз27966 0.0 1003119
06:00+13ю279190 0.0 1003160
09:00+18ююз3676100 0.0 1003457
12:00+23ююз4757100 0.2 10021515
15:00+20зюз388598 4.4 10011065
18:00+19юз49895 4.6 1001829
21:00+16юз311910 8.1 1002422
2 августа, пн
пн200:00+14юз31197100 0.8 1003378
03:00+13ююз2998100 0.8 1004225
06:00+13ююз2797100 0.0 1004202
09:00+17юз3681100 0.0 1005525
12:00+22юз4648100 0.0 10051610
15:00+22ююз3557100 0.0 10031655
18:00+16ю3797100 0.9 1003245
21:00+15в0099100 4.6 100122
3 августа, вт
вт300:00+15ссз13100100 12.4 999176
03:00+15сз3799100 21.8 997461
06:00+14сз2799100 1.5 999359
09:00+17зсз248717 1.6 1000548
12:00+18з467899 1.2 1001896
15:00+20з5755100 1.6 10021158
18:00+17з5768100 0.0 1004871
21:00+14з398992 0.0 1006425
4 августа, ср
ср400:00+12з279997 0.0 1007210
03:00+13ссз2698100 0.8 1009335
06:00+13ссз2697100 0.1 1011336
09:00+15ссв35640 0.1 1014697
12:00+20с35375 0.0 10152029
15:00+21с243289 0.0 10152640
18:00+19ссз234521 0.0 1017695
21:00+13с11715 0.0 101810